Flag for Germany Weather past 2 weeks in Eisenhüttenstadt, Brandenburg, Germany

Now
73 °F

Passing clouds.


Feels Like: 76 °F
Forecast: 64 / 93 °F
Wind: 5 mph from Southeast

Location: Lindenberg

Current Time: Aug 31, 2015 at 6:51:39 AM

Latest Report: Aug 31, 2015 at 5:00 AM


Visibility: 16 mi

Pressure: 29.95 "Hg

Humidity: 62%

Dew point: 60 °F

Location of EisenhüttenstadtLocation

Historic Weather in Eisenhüttenstadt — Graph

°F

Eisenhüttenstadt temperature yesterday

Maximum temperature yesterday: 87 °F (at 4:00 PM)
Minimum temperature yesterday: 59 °F (at 6:00 AM)
Average temperature yesterday: 73 °F

Past Weeks' High & Low Weather Summary

 TemperatureHumidityPressure
High87 °F (Aug 30, 4:00 PM)98% (Aug 16, 6:00 AM)30.31 "Hg (Aug 16, 6:00 AM)
Low53 °F (Aug 29, 7:00 AM)24% (Aug 19, 6:00 PM)29.71 "Hg (Aug 25, 1:00 AM)
Average68 °F62%30.01 "Hg
* Reported Aug 16 6:00 AM — Aug 31 5:00 AM, Eisenhüttenstadt, Weather by CustomWeather, © 2015

Note: Actual official high and low records may vary slightly from our data, if they occured in-between our weather recording intervals... More about our weather records

Advertising

Eisenhüttenstadt weather history for previous 24 hours

 ConditionsComfort  
Time TempWeatherWind HumidityBarometerVisibility
5:00 AM
Mon, Aug 31
73 °FPassing clouds.5 mph62%29.95 "Hg16 mi
4:00 AM74 °FPassing clouds.5 mph61%29.97 "Hg16 mi
3:00 AM74 °FPassing clouds.3 mph60%29.98 "Hg19 mi
2:00 AM75 °FPassing clouds.3 mph60%29.99 "Hg19 mi
1:00 AM76 °FPassing clouds.3 mph58%29.99 "Hg25 mi
11:00 PM
Sun, Aug 30
75 °FOvercast.3 mph61%30.01 "Hg25 mi
10:00 PM76 °FPassing clouds.3 mph60%30.01 "Hg28 mi
9:00 PM77 °FPassing clouds.3 mph59%30.02 "Hg28 mi
8:00 PM78 °FPassing clouds.3 mph57%30.01 "Hg28 mi
7:00 PM81 °FPassing clouds.5 mph52%30.02 "Hg25 mi
6:00 PM85 °FScattered clouds.2 mph43%30.03 "Hg37 mi
4:00 PM87 °FPassing clouds.2 mph38%30.03 "Hg31 mi
3:00 PM86 °FPassing clouds.2 mph40%30.05 "Hg31 mi
2:00 PM84 °FPassing clouds.2 mph41%30.09 "Hg31 mi
1:00 PM81 °FPassing clouds.2 mph45%30.11 "Hg31 mi
12:00 PM79 °FScattered clouds.2 mph45%30.12 "Hg31 mi
11:00 AM75 °FScattered clouds.3 mph51%30.12 "Hg25 mi
10:00 AM72 °FPartly sunny.2 mph52%30.13 "Hg25 mi
9:00 AM69 °FPartly sunny.2 mph59%30.13 "Hg25 mi
8:00 AM64 °FScattered clouds.2 mph78%30.13 "Hg19 mi
7:00 AM62 °FPartly sunny.3 mph72%30.13 "Hg16 mi
6:00 AM59 °FPassing clouds.2 mph84%30.13 "Hg12 mi
Weather by CustomWeather, © 2015

See weather overviewHow to use our weather pages